Change the Weather History Date:

Friday, May 10, 2013

  Actual Average Record
Temperature  
Mean Temperature 61 °F -  
Max Temperature 73 °F 74 °F 99 °F (1967)
Min Temperature 51 °F 50 °F 31 °F (1981)
Degree Days  
Heating Degree Days 4    
Growing Degree Days 11 (Base 50)    
Moisture  
Dew Point 50 °F    
Average Humidity 76    
Maximum Humidity 94    
Minimum Humidity 41    
Precipitation  
Precipitation 0.00 in - - ()
Sea Level Pressure  
Sea Level Pressure 30.07 in    
Wind  
Wind Speed 9 mph (NNW)    
Max Wind Speed 17 mph    
Max Gust Speed 23 mph    
Visibility 8 miles    
Events      
Averages and records for this station are not official NWS values.
T = Trace of Precipitation, MM = Missing Value Source: NWS Daily Summary

Daily Weather History Graph

Daily Weather History Graph

Search for Another Location

Airport or City:

Trip Planner

Search our weather history database for the weather conditions in past years. The results will help you decide how hot, cold, wet, or windy it might be!

Date:

Astronomy

May. 10, 2013 Rise Set
Actual Time 6:27 AM CDT 8:36 PM CDT
Civil Twilight 5:57 AM CDT 9:06 PM CDT
Nautical Twilight 5:21 AM CDT 9:42 PM CDT
Astronomical Twilight 4:42 AM CDT 10:22 PM CDT
Moon 6:52 AM CDT (5/10) 9:27 PM CDT (5/10)
Length of Visible Light 15h 08m
Length of Day
14h 09m
New Moon, 0% of the Moon is Illuminated
May 10
New Moon
May 17
First Quarter
May 24
Full
May 31
Last Quarter
Jun 8
New

Hourly Weather History & Observations

Time (CDT) Temp. Dew Point Humidity Pressure Visibility Wind Dir Wind Speed Gust Speed Precip Events Conditions
12:53 AM 53.1 °F 51.1 °F 93% 30.05 in 10.0 mi NW 6.9 mph - N/A   Mostly Cloudy
1:02 AM 53.6 °F 51.8 °F 94% 30.06 in 10.0 mi NW 6.9 mph - N/A   Mostly Cloudy
1:10 AM 53.6 °F 51.8 °F 94% 30.06 in 9.0 mi NW 6.9 mph - N/A   Overcast
1:53 AM 54.0 °F 52.0 °F 93% 30.06 in 10.0 mi NW 8.1 mph - N/A   Overcast
2:24 AM 55.4 °F 51.8 °F 88% 30.06 in 10.0 mi NNW 6.9 mph - N/A   Overcast
2:53 AM 54.0 °F 52.0 °F 93% 30.05 in 8.0 mi NW 8.1 mph - N/A   Overcast
3:25 AM 53.6 °F 51.8 °F 94% 30.06 in 8.0 mi NNW 10.4 mph - N/A   Overcast
3:53 AM 54.0 °F 51.1 °F 90% 30.05 in 8.0 mi NW 10.4 mph - N/A   Overcast
4:53 AM 53.1 °F 51.1 °F 93% 30.06 in 6.0 mi NNW 8.1 mph - N/A   Overcast
5:03 AM 53.6 °F 51.8 °F 94% 30.07 in 6.0 mi NNW 10.4 mph - N/A   Mostly Cloudy
5:15 AM 53.6 °F 51.8 °F 94% 30.07 in 6.0 mi NNW 11.5 mph - N/A   Overcast
5:53 AM 52.0 °F 50.0 °F 93% 30.05 in 7.0 mi North 12.7 mph - N/A   Scattered Clouds
6:08 AM 51.8 °F 50.0 °F 94% 30.06 in 6.0 mi NNW 10.4 mph - N/A   Partly Cloudy
6:47 AM 51.8 °F 50.0 °F 94% 30.08 in 4.0 mi North 12.7 mph - N/A   Mostly Cloudy
6:53 AM 51.1 °F 48.9 °F 92% 30.07 in 4.0 mi North 13.8 mph - N/A   Mostly Cloudy
7:04 AM 51.8 °F 48.2 °F 88% 30.09 in 4.0 mi North 12.7 mph - N/A   Scattered Clouds
7:12 AM 51.8 °F 48.2 °F 88% 30.09 in 3.0 mi North 11.5 mph - N/A   Mostly Cloudy
7:53 AM 53.1 °F 50.0 °F 89% 30.09 in 4.0 mi NNW 10.4 mph - N/A   Partly Cloudy
8:16 AM 53.6 °F 50.0 °F 88% 30.11 in 5.0 mi NNW 10.4 mph - N/A   Mostly Cloudy
8:53 AM 55.0 °F 51.1 °F 86% 30.10 in 7.0 mi North 11.5 mph - N/A   Mostly Cloudy
9:53 AM 60.1 °F 51.1 °F 72% 30.10 in 10.0 mi North 11.5 mph - N/A   Mostly Cloudy
10:02 AM 59.0 °F 50.0 °F 72% 30.11 in 10.0 mi North 17.3 mph 23.0 mph N/A   Scattered Clouds
10:53 AM 62.1 °F 48.9 °F 62% 30.11 in 10.0 mi North 10.4 mph 20.7 mph N/A   Scattered Clouds
11:53 AM 66.0 °F 48.0 °F 52% 30.12 in 10.0 mi NNE 13.8 mph - N/A   Partly Cloudy
12:53 PM 68.0 °F 48.0 °F 49% 30.12 in 10.0 mi North 13.8 mph 18.4 mph N/A   Partly Cloudy
1:53 PM 70.0 °F 48.0 °F 46% 30.10 in 10.0 mi North 9.2 mph 16.1 mph N/A   Partly Cloudy
2:53 PM 70.0 °F 48.0 °F 46% 30.07 in 10.0 mi North 12.7 mph 18.4 mph N/A   Scattered Clouds
3:53 PM 71.1 °F 46.0 °F 41% 30.05 in 10.0 mi NNE 12.7 mph 20.7 mph N/A   Partly Cloudy
4:53 PM 71.1 °F 46.0 °F 41% 30.04 in 10.0 mi NNW 5.8 mph - N/A   Scattered Clouds
5:22 PM 64.4 °F 50.0 °F 59% 30.06 in 10.0 mi WNW 12.7 mph - N/A   Overcast
5:53 PM 69.1 °F 48.9 °F 49% 30.04 in 10.0 mi West 6.9 mph - N/A   Partly Cloudy
6:53 PM 70.0 °F 46.9 °F 44% 30.03 in 10.0 mi Calm Calm - N/A   Clear
7:53 PM 69.1 °F 48.9 °F 49% 30.04 in 10.0 mi Calm Calm - N/A   Clear
8:53 PM 61.0 °F 51.1 °F 70% 30.06 in 10.0 mi SSW 5.8 mph - N/A   Clear
9:53 PM 59.0 °F 48.9 °F 69% 30.08 in 10.0 mi SSW 5.8 mph - N/A   Clear
10:53 PM 55.0 °F 48.9 °F 80% 30.09 in 10.0 mi South 4.6 mph - N/A   Clear
11:53 PM 55.0 °F 48.9 °F 80% 30.09 in 10.0 mi SSW 5.8 mph - N/A   Clear